Regional Weather Roundup
Issued by NWS

Home | Current Version | Previous Version | Text Only | Print | Product List | Glossary Off
Versions: 1 2 3 4 5 6 7 8 9 10 11 12 13 14 15 16 17 18 19 20 21 22 23 24 25 26 27 28 29 30 31 32 33 34 35 36 37 38 39 40 41 42 43 44 45 46 47 48 49 50

000
ASUS45 KABQ 261410
RWRNM
NEW MEXICO REGIONAL WEATHER ROUNDUP
NATIONAL WEATHER SERVICE ALBUQUERQUE NM
800 AM MDT WED APR 26 2017

NOTE: "FAIR" MEANS FEW OR NO CLOUDS BELOW 12,000 FEET AGL WITH NO
       SIGNIFICANT WEATHER OR OBSTRUCTIONS TO VISION.

      THIS PRODUCT IS RELEASED AS TWO VERSIONS.  ONE VERSION NEAR
      THE TOP OF THE HOUR CONTAINING PRELIMINARY DATA FROM ALBUQUERQUE
      AND OTHER STATIONS.  A FINAL VERSION WITH ADDITIONAL DATA IS
      ISSUED ABOUT 10 MINUTES AFTER THE HOUR.

NMZ501-503-504-510>518-261500-
NORTHWEST PLATEAU/NORTHCENTRAL MOUNTAINS

CITY           SKY/WX    TMP DP  RH WIND       PRES   REMARKS
FARMINGTON     FAIR      40  27  59 W12       29.91R WCI  33
LOS ALAMOS     FAIR      36  30  78 CALM      29.92R
SANTA FE       FAIR      41  33  73 N5        29.89R
TAOS             N/A     34  25  69 N3        29.92R
ANGEL FIRE     FAIR      30  24  78 W10       29.90R WCI  21

$$
NMZ402-403-502-505>509-261500-
WESTCENTRAL MOUNTAINS/SOUTHWEST MOUNTAINS

CITY           SKY/WX    TMP DP  RH WIND       PRES   REMARKS
GALLUP         FAIR      34  27  75 CALM      29.98R
GRANTS         FAIR      37  27  67 N7        29.98S WCI  31
SILVER CITY    FAIR      48  23  37 NW6       29.95R

$$
NMZ407-409-411-412-261500-
SOUTHERN DESERTS

CITY           SKY/WX    TMP DP  RH WIND       PRES   REMARKS
DEMING         FAIR      53  26  35 NW8       29.93R
LAS CRUCES     FAIR      57  24  28 N10       29.92R
HOLLOMAN AFB   FAIR      56  24  29 N9        29.93R
ALAMOGORDO     FAIR      55  23  28 N8        29.91R
T OR C         FAIR      54  20  26 W6        29.92R

$$
NMZ519>523-261500-
CENTRAL VALLEYS/CENTRAL HIGHLANDS

CITY           SKY/WX    TMP DP  RH WIND       PRES   REMARKS
ALBUQUERQUE    FAIR      45  29  53 N14       29.92R
DOUBLE EAGLE   SUNNY     43  28  56 CALM      29.93R
MORIARTY ARPT  FAIR      45  31  57 NW8       29.91R
CLINES CORNERS FAIR      39  29  67 N12       29.90R WCI  32
BELEN          FAIR      46  29  51 NE7       29.93S
SOCORRO        FAIR      51  23  34 N6        29.92R

$$
NMZ524>526-539-540-261500-
SOUTHCENTRAL MOUNTAINS

CITY           SKY/WX    TMP DP  RH WIND       PRES   REMARKS
RUIDOSO        FAIR      41  23  48 NW15G25   29.93S

$$
NMZ527>531-261500-
NORTHEAST HIGHLANDS/NORTHEAST PLAINS

CITY           SKY/WX    TMP DP  RH WIND       PRES   REMARKS
LAS VEGAS      FAIR      38  29  70 S3        29.86S
RATON          FAIR      38  28  67 E9        29.83R WCI  31
CLAYTON        LGT RAIN  37  36  96 N17       29.83R WCI  27

$$
NMZ532>537-261500-
EASTCENTRAL PLAINS

CITY           SKY/WX    TMP DP  RH WIND       PRES   REMARKS
SANTA ROSA     CLOUDY    46  35  65 CALM      29.87S
TUCUMCARI      FAIR      46  40  79 N17       29.83R
CANNON AFB     PTSUNNY   43  43 100 N15       29.82R
CLOVIS AIRPORT CLOUDY    43  36  75 N21G26    29.82R

$$
NMZ028-029-538-261500-
SOUTHEAST PLAINS

CITY           SKY/WX    TMP DP  RH WIND       PRES   REMARKS
ROSWELL        FAIR      54  34  46 N23G30      N/A
ARTESIA        FAIR      55  32  41 N25G31    29.85R
CARLSBAD       FAIR      62  24  23 N26G33    29.82R
HOBBS          SUNNY     54  37  54 NW23G33   29.80R


$$




USA.gov is the U.S. government's official web portal to all federal, state and local government web resources and services.